This is the latest recevied weather packets stored in our database for station/object K5NWZ. If no packets are shown the sender has not sent any weather packets the latest 10 day(s).
| Time | Temp. | Humidity | Pressure | Rain* | Wind** | Luminosity | Snow |
|---|---|---|---|---|---|---|---|
| 1778079133 | 0° C | 97% | 1029 hPa | 0 mm | - | 78 W/m² | - |
| 1778078830 | 0° C | 98% | 1029.1 hPa | 0 mm | - | 69 W/m² | - |
| 1778078527 | 0° C | 98% | 1028.9 hPa | 0 mm | - | 63 W/m² | - |
| 1778078224 | 0° C | 98% | 1029.1 hPa | 0 mm | - | 57 W/m² | - |
| 1778077922 | 0° C | 98% | 1028.9 hPa | 1.78 mm | - | 57 W/m² | - |
| 1778077620 | 0° C | 98% | 1028.9 hPa | 1.78 mm | - | 53 W/m² | - |
| 1778077318 | 0° C | 98% | 1028.8 hPa | 0 mm | - | 49 W/m² | - |
| 1778077015 | -0.56° C | 98% | 1029 hPa | 0 mm | - | 47 W/m² | - |
| 1778076714 | -0.56° C | 98% | 1028.7 hPa | 0 mm | - | 41 W/m² | - |
| 1778076411 | -0.56° C | 98% | 1028.9 hPa | 0 mm | - | 37 W/m² | - |
| 1778076108 | -0.56° C | 98% | 1028.7 hPa | 0 mm | - | 34 W/m² | - |
| 1778075805 | -0.56° C | 98% | 1028.8 hPa | 0 mm | - | 28 W/m² | - |
| 1778075501 | -0.56° C | 98% | 1028.8 hPa | 0 mm | - | 21 W/m² | - |
| 1778075198 | -0.56° C | 98% | 1028.7 hPa | 0 mm | - | 19 W/m² | - |
| 1778074893 | -0.56° C | 98% | 1028.7 hPa | 0 mm | - | 23 W/m² | - |
| 1778074591 | -0.56° C | 98% | 1028.6 hPa | 0 mm | - | 21 W/m² | - |
| 1778074288 | -0.56° C | 98% | 1028.4 hPa | 0 mm | - | 20 W/m² | - |
| 1778073985 | -0.56° C | 98% | 1028.3 hPa | 0 mm | - | 18 W/m² | - |
| 1778073682 | -0.56° C | 98% | 1028.1 hPa | 0 mm | - | 17 W/m² | - |
| 1778073380 | -0.56° C | 98% | 1028 hPa | 0 mm | - | 13 W/m² | - |
| 1778073075 | -0.56° C | 98% | 1028.1 hPa | 0 mm | - | 13 W/m² | - |
| 1778072773 | -0.56° C | 98% | 1027.9 hPa | 0 mm | - | 13 W/m² | - |
| 1778072470 | -0.56° C | 98% | 1028.1 hPa | 0 mm | - | 11 W/m² | - |
| 1778072168 | -0.56° C | 97% | 1028 hPa | 0 mm | - | 9 W/m² | - |
| 1778071866 | -0.56° C | 97% | 1028 hPa | 0 mm | - | 6 W/m² | - |
* Rain latest hour (hover to see other rain measurements)
** Current wind speed in m/s (hover to see current wind gust speed)